Location: Moscow
(44.4414°N, 72.7154°W)
Time: 23:15:58
(UTC+00:00)

Explorer 11/Cluster Stage 4 - Pass Details

Date: 16 December 2025
Orbit: 463 x 1179 km, 28.8° (Epoch: 23 January)

Event Time Altitude Azimuth Distance (km) Brightness Sun altitude
Rises 23:58:53 0° 238° (WSW) 4,027 11.2 -28.8°
Reaches altitude 10° 00:02:32 10° 224° (SW) 3,011 10.1 -29.4°
Maximum altitude 00:07:52 21° 179° (S) 2,162 8.8 -30.4°
Enters shadow 00:08:38 21° 170° (S) 2,161 8.7 -30.5°
